THOR ABLESTAR DEB, 1608

Orbit data source: Space-Track

THOR ABLESTAR DEB, 1608 is space debris in LEO originally from a launch on Sun, 13 Dec 1964 UTC launched from the Air Force Western Test Range (AFWTR). Debris objects in space refer to the collection of defunct objects orbiting the Earth. Examples of debris include non-operational satellites, rocket bodies, and fragments generated from explosions, collisions, or faulty payload assembly.

Loading next visibility...
Identifier
1608, 1964-083H
Orbit
LEO
Country
Flag of USUS
Related business
Manufacturer
Unknown
Mission
Spacecraft
Bus & Motor
Unknown
Mass
Unknown
Launch date (UTC)
1964-12-13 (61 years ago)
Launch vehicle
Unknown
Launch site
Air Force Western Test Range (AFWTR)
Object type
Payload
Rocket body
Debris
Shape & HBR
Unknown
Radar Cross Section
Small (<0.1 m²)

Expand to show TLE details & history
Last TLE update: 16 hours ago

TLE from 16 hours ago
0 THOR ABLESTAR DEB
1 01608U 64083H   25242.53053647  .00001056  00000-0  91541-3 0  9999
2 01608  89.7540  73.7832 0015427 286.3745 127.1335 13.85577620 34669
Epoch: 2025-08-30T12:43Z
TLE epoch observation values (Epoch: 2025-08-30T12:43:58.351Z)
Latitude
53.74388°
Longitude
-95.83975°
Altitude
959.911 km
Speed
7.373 km/s
True Right ascension
04h 56m 28s
True Declination
53° 35' 03"
Sunlit
Object was in daylight at epoch
Visualization orbit readout
Latitude
Unknown
Longitude
Unknown
Altitude
Unknown
Speed
Unknown
Apparent Right ascension
Unknown
Apparent Declination
Unknown
Sunlit
N/A
Visualization observer readout
Local Sidereal Time
20:12:01
Azimuth
Unknown
Elevation
Unknown
Doppler factor
Unknown
Orbital elements
Apogee altitude
952.46 km
Perigee altitude
929.877 km
Semi-major axis
7,319.305 km
Eccentricity
0.00154
Inclination
89.754°
RAAN
73.7832°
Arg. of periapsis
286.3745°
True anomaly
127.27427°
Mean anomaly
127.1335°
Eccentric anomaly
127.2039°
Mean motion
3.46608 °/min
Orbital period
103.86 mins
BSTAR
0.00091541
Loading maneuver chart data...
Computing Atmospheric mass density...

Documentation

Showing up to 5 results
|